Miscellaneous Local Product
Issued by NWS North Platte, NE

Home | Current Version | Previous Version | Graphics & Text | Print | Product List | Glossary On
Versions: 1 2 3 4 5 6 7 8 9 10 11 12 13 14 15 16 17 18 19 20 21 22 23 24 25 26 27 28 29 30 31 32 33 34 35 36 37 38 39 40 41 42 43 44 45 46 47 48 49 50
000
AXUS43 KLBF 270710
MISLBF


WESTERN AND NORTH CENTRAL NEBRASKA HOURLY WEATHER ROUNDUP
NATIONAL WEATHER SERVICE NORTH PLATTE NE
200 AM CDT THU AUG 27 2015

NOTE: "FAIR" INDICATES FEW OR NO CLOUDS BELOW 12,000 FEET WITH NO
SIGNIFICANT WEATHER AND/OR OBSTRUCTIONS TO VISIBILITY.

NOTE: STATIONS NOT REPORTING VARIABLES SUCH AS SKY/WEATHER OR
PRESSURE ARE PROVIDED BY THE NEBRASKA DEPARTMENT OF
ROADS...RAWS...AND APRS NETWORKS...AND ARE NOT UNDER
NATIONAL WEATHER SERVICE QUALITY CONTROL.

...OBSERVATIONS IN AND NEAR THE EASTERN PANHANDLE OF NEBRASKA...

CITY           SKY/WX    TMP DP  RH WIND       PRES   REMARKS
PINE RIDGE     CLOUDY    72  64  76 NE26G37   30.01R
CHADRON        CLOUDY    71  62  73 NE17G24   29.98R
ALLIANCE       MOCLDY    68  52  56 S8        29.96F
SIDNEY         CLEAR     62  42  47 SW10      30.03S
CRESCENT LAKE    N/A     72  44  36 S6          N/A
BIG SPRINGS      N/A     74  50  42 S12         N/A
$$

...OBSERVATIONS IN NORTH CENTRAL NEBRASKA...

CITY           SKY/WX    TMP DP  RH WIND       PRES   REMARKS
VALENTINE      CLOUDY    74  68  81 VRB5G16   29.96R
THEDFORD       CLOUDY    73  69  89 SE7       29.97S
AINSWORTH      CLOUDY    73  67  84 SE14      29.97R
O`NEILL        CLOUDY    71  64  78 SE12      30.00S
ORD            MOCLDY    69  63  81 SE5       29.97F
BROKEN BOW     CLOUDY    71  67  87 SE6       29.98F
SPRINGVIEW       N/A     71  66  84 E6          N/A
SARGENT          N/A     69  66  91 CALM        N/A
CHAMBERS         N/A     69  63  81 W3          N/A
EWING            N/A     66  62  88 E3          N/A
$$

...OBSERVATIONS IN SOUTHWEST NEBRASKA AND FAR NORTHEAST COLORADO...

CITY           SKY/WX    TMP DP  RH WIND       PRES   REMARKS
WRAY           FAIR      73  47  39 W5        30.03S
HOLYOKE        FAIR      64  52  63 SW8       30.01F
IMPERIAL       PTCLDY    71  49  45 S8        29.99F
OGALLALA       PTCLDY    75  49  40 S12       29.96F
NORTH PLATTE   MOCLDY    67  66  97 E8        29.96F
MCCOOK         PTCLDY    78  51  38 SW13      29.96F
LEXINGTON      PTCLDY    71  69  93 SE5       29.98S
PAXTON           N/A     73  55  52 S12         N/A
BRADY            N/A     68  65  90 CALM        N/A
CALLAWAY         N/A     70  69  96 S8          N/A
$$

...OBSERVATIONS IN CENTRAL LINCOLN COUNTY AREA...

CITY           SKY/WX    TMP DP  RH WIND       PRES   REMARKS
N.P. AIRPORT   MOCLDY    67  66  97 E8        29.96F
N.P. DOWNTOWN    N/A     73  63  72 CALM        N/A
N.P. SOUTHEAST   N/A     71  63  77 CALM        N/A
$$

...SOME OBSERVATIONS FROM AROUND THE REGION...

CITY           SKY/WX    TMP DP  RH WIND       PRES   REMARKS
DENVER         PTCLDY    66  44  45 CALM      30.11F
LARAMIE        CLOUDY    58  47  66 CALM      30.29S
CHEYENNE       PTCLDY    67  46  47 NW9       30.17F
SCOTTSBLUFF    PTCLDY    65  53  65 NW7       29.99F
RAPID CITY     LGT RAIN  64  60  87 NE29G38   29.99F
PIERRE         RAIN      71  68  90 W14       30.03R
WINNER         FAIR      76  65  68 SE13G25   29.93R
SIOUX FALLS    PTCLDY    65  60  84 SE7       30.04F
OMAHA          PTCLDY    66  60  81 SE12      30.07S
GRAND ISLAND   MOCLDY    71  64  78 SE13      30.00S
KANSAS CITY    CLEAR     65  55  70 SE9       30.09F
WICHITA        MOCLDY    74  70  87 S10       30.04F
HAYS           PTCLDY    75  63  64 S8        29.99F
LIBERAL        MOCLDY    72  57  60 S9        30.11F
GOODLAND       PTCLDY    73  54  51 S14       30.05F
$$



USA.gov is the U.S. government's official web portal to all federal, state and local government web resources and services.